User: anonymous
Location: Plymouth
(43.7570°N, 71.6890°W)
Time: 23:29:06
(UTC-04:00)
Language:

Cosmos 2016 Rocket - Orbit

View from above orbital plane
View from above orbital plane
View from above satellite
View from above satellite

Ground track
Ground track

The orbit data is extracted from the following two-line orbital elements,

1 19922U 89028B   14245.71442907  .00000136  00000-0  12198-3 0   748
2 19922 082.9566 102.2717 0035898 216.4642 209.1817 13.77112360277059
Epoch (UTC): 02 September 2014 17:08:46
Eccentricity: 0.0035898
inclination: 82.9566°
perigee height: 948 km
apogee height: 1000 km
right ascension of ascending node: 102.2717°
argument of perigee: 216.4642°
revolutions per day: 13.77112360
mean anomaly at epoch: 209.1817°
orbit number at epoch: 27705

The dashed part of the orbit path shows where the satellite is in the earth's shadow,  

DLR